Weather WX

World > North America > United States > Oregon

Tolovana Park, Oregon Regional Weather

Lat: 45.87N, Lon: 123.96W
Wx Zone: ORZ001
Feedback

Tolovana Park, OR Regional Weather

Expires:201906161900;;171541
ASUS46 KPQR 161810
RWROR 

OREGON REGIONAL WEATHER ROUNDUP
NATIONAL WEATHER SERVICE PORTLAND OR
1100 AM PDT SUN JUN 16 2019

NOTE: "FAIR" INDICATES FEW OR NO CLOUDS BELOW 12,000 FEET WITH
NO SIGNIFICANT WEATHER AND/OR OBSTRUCTIONS TO VISIBILITY.


ORZ001>013-161900-
NORTHWEST OREGON

  
CITY           SKY/WX    TMP DP  RH WIND       PRES   REMARKS
ASTORIA        CLOUDY    59  54  83 NW8       30.11S                  
6HR MIN TEMP:  54; 6HR MAX TEMP:  59;                                

TILLAMOOK      MOSUNNY   63  54  72 NW13      30.11F                  
PORTLAND       PTSUNNY   64  51  62 N3        30.07S                  
6HR MIN TEMP:  54; 6HR MAX TEMP:  64;                                

VANCOUVER WA   MOSUNNY   62  51  67 SE5       30.06S                  
6HR MIN TEMP:  54; 6HR MAX TEMP:  63;                                

SCAPPOOSE      MOSUNNY   65  53  65 VRB6      30.06S                  
6HR MIN TEMP:  51; 6HR MAX TEMP:  66;                                

HILLSBORO      SUNNY     67  52  58 N3        30.06S                  
6HR MIN TEMP:  50; 6HR MAX TEMP:  67;                                

AURORA         SUNNY     67  52  58 S3        30.07S                  
6HR MIN TEMP:  55; 6HR MAX TEMP:  67;                                

MCMINNVILLE    SUNNY     67  51  56 VRB3      30.06S                  
6HR MIN TEMP:  50; 6HR MAX TEMP:  68;                                

SALEM          SUNNY     68  50  52 VRB5      30.05F                  
6HR MIN TEMP:  54; 6HR MAX TEMP:  69;                                

CORVALLIS      SUNNY     70  54  56 VRB3      30.06F                  
EUGENE         MOSUNNY   73  54  51 N12       30.05F                  
6HR MIN TEMP:  49; 6HR MAX TEMP:  73;                                

$$


SKY/WX - Weather  TMP - Temperature  DP - Dew Point  RH - Relative Humidity
WIND - Wind Direction/Speed PRES - Barometric Pressure VSB - Visibility
WCI - Wind Chill Index E13G22 Wind - East Wind 13 mph/Gusts of 22 mph